Flag for U.S.A. Weather past 2 weeks in Wilmington, Delaware, U.S.A.

Now
73 °F

Passing clouds.


Feels Like: 71 °F
Forecast: 70 / 84 °F
Wind: 5 mph from Northwest

Location: New Castle County Airport

Current Time: Sep 3, 2014 at 2:38:09 AM

Latest Report: Sep 3, 2014 at 1:51 AM


Visibility: 10 mi

Pressure: 29.91 "Hg

Humidity: 90%

Dew point: 70 °F

Location of WilmingtonLocation

Historic Weather in Wilmington — Graph

°F

Wilmington temperature yesterday

Maximum temperature yesterday: 91 °F (at 2:51 PM)
Minimum temperature yesterday: 73 °F (at 9:51 PM)
Average temperature yesterday: 81 °F

Past Weeks' High & Low Weather Summary

 TemperatureHumidityPressure
High92 °F (Aug 31, 1:51 PM)97% (Aug 25, 4:51 AM)30.27 "Hg (Aug 25, 4:51 AM)
Low56 °F (Aug 29, 6:51 AM)39% (Aug 28, 5:51 PM)29.84 "Hg (Aug 19, 4:51 AM)
Average74 °F73%30.05 "Hg
* Reported Aug 19 12:51 AM — Sep 3 12:51 AM, Wilmington, Weather by CustomWeather, © 2014

Note: Actual official high and low records may vary slightly from our data, if they occured in-between our weather recording intervals... More about our weather records

Advertising

Wilmington weather history for previous 24 hours

 ConditionsComfort  
Time TempWeatherWind HumidityBarometerVisibility
12:51 AM
Sep 3
74 °FClear.6 mph88%29.90 "Hg10 mi
11:51 PM
Sep 2
74 °FClear.8 mph91%29.89 "Hg10 mi
10:59 PM74 °FThundershowers. Mostly cloudy.10 mph91%29.90 "Hg10 mi
9:51 PM73 °FPartly cloudy.5 mph88%29.90 "Hg10 mi
9:02 PM74 °FThundershowers. Partly cloudy.15 mph88%29.92 "Hg10 mi
8:51 PM74 °FPassing clouds.6 mph88%29.88 "Hg10 mi
7:51 PM75 °FHeavy rain. Broken clouds.14 mph79%29.88 "Hg2 mi
6:51 PM87 °FSunny.7 mph59%29.85 "Hg10 mi
5:51 PM89 °FSunny.13 mph52%29.86 "Hg10 mi
4:51 PM90 °FSunny.9 mph52%29.86 "Hg10 mi
3:51 PM90 °FPassing clouds.12 mph54%29.88 "Hg10 mi
2:51 PM91 °FSunny.12 mph52%29.90 "Hg10 mi
1:51 PM90 °FPartly sunny.10 mph56%29.92 "Hg10 mi
12:51 PM89 °FScattered clouds.9 mph57%29.93 "Hg10 mi
11:51 AM89 °FScattered clouds.9 mph57%29.95 "Hg10 mi
10:51 AM87 °FSunny.12 mph59%29.96 "Hg10 mi
9:51 AM85 °FSunny.7 mph65%29.96 "Hg10 mi
8:51 AM81 °FSunny.7 mph79%29.96 "Hg10 mi
7:51 AM76 °FSunny.7 mph94%29.96 "Hg10 mi
6:51 AM74 °FClear.5 mph97%29.96 "Hg10 mi
5:51 AM74 °FClear.6 mph94%29.93 "Hg10 mi
4:51 AM74 °FPassing clouds.5 mph91%29.92 "Hg10 mi
3:51 AM76 °FPassing clouds.No wind88%29.93 "Hg10 mi
2:51 AM77 °FPassing clouds.7 mph88%29.94 "Hg10 mi
Weather by CustomWeather, © 2014

See weather overviewHow to use our weather pages